Location: Bergfeld
(52.0500°N, 11.7833°E)
Time: 18:31:16
(UTC+00:00)

CZ-2C R/B - Pass Details

Date: 17 February 2020
Orbit: 668 x 785 km, 98.1° (Epoch: 28 March)

Event Time Altitude Azimuth Distance (km) Brightness Sun altitude
Rises 02:59:29 0° 19° (NNE) 3,290 6.3 -31.8°
Reaches altitude 10° 03:01:58 10° 26° (NNE) 2,355 5.6 -31.5°
Maximum altitude 03:06:53 41° 97° (E) 1,124 3.6 -30.8°
Enters shadow 03:08:25 33° 136° (SE) 1,292 3.8 -30.5°
